Overview Statistics Trail Chart Weather Telemetry Raw packets
 

This is the latest recevied weather packets stored in our database for station/object W1RCP. If no packets are shown the sender has not sent any weather packets the latest 10 day(s).

<< 7 8 9 10 11 12 13 >>
Time Temp. Humidity Pressure Rain* Wind** Luminosity Snow
1788563324 25.56° C 88% 1025.7 hPa 0 mm - 16 W/m² -
1788563022 26.11° C 87% 1025.9 hPa 0 mm - 17 W/m² -
1788562717 26.11° C 87% 1025.5 hPa 0 mm - 18 W/m² -
1788562416 26.11° C 86% 1025.7 hPa 0 mm - 21 W/m² -
1788562124 26.67° C 86% 1025.6 hPa 0 mm - 24 W/m² -
1788561811 26.67° C 85% 1025.6 hPa 0 mm - 41 W/m² -
1788561510 26.67° C 86% 1025.3 hPa 0 mm - 53 W/m² -
1788561205 26.67° C 87% 1025.5 hPa 0 mm - 58 W/m² -
1788560901 26.67° C 86% 1025.5 hPa 0 mm - 61 W/m² -
1788560596 27.22° C 84% 1025.5 hPa 0 mm - 63 W/m² -
1788560296 27.78° C 82% 1025.5 hPa 0 mm - 76 W/m² -
1788559996 27.78° C 82% 1025.4 hPa 0 mm - 111 W/m² -
1788559691 28.33° C 80% 1025.1 hPa 0 mm - 133 W/m² -
1788559391 28.89° C 77% 1025.3 hPa 0 mm - 138 W/m² -
1788559086 30° C 75% 1025.1 hPa 0 mm - 132 W/m² -
1788558781 31.11° C 69% 1025.3 hPa 0 mm - 111 W/m² -
1788558477 31.67° C 68% 1024.9 hPa 0 mm - 121 W/m² -
1788558173 32.22° C 67% 1025.1 hPa 0 mm - 143 W/m² -
1788557870 32.78° C 66% 1025.1 hPa 0 mm - 167 W/m² -
1788557566 32.78° C 64% 1025 hPa 0 mm - 194 W/m² -
1788557262 32.78° C 63% 1025 hPa 0 mm - 229 W/m² -
1788556962 32.78° C 63% 1024.7 hPa 0 mm - 250 W/m² -
1788556657 32.78° C 63% 1024.6 hPa 0 mm - 249 W/m² -
1788556351 33.33° C 62% 1024.9 hPa 0 mm - 233 W/m² -
1788556047 33.33° C 62% 1024.6 hPa 0 mm - 270 W/m² -

* Rain latest hour (hover to see other rain measurements)
** Current wind speed in m/s (hover to see current wind gust speed)